Location: Peterborough
(44.3091°N, 78.3197°W)
Time: 03:50:37
(UTC-04:00)

Tiros 1 despin weight - Pass Details

Date: 30 March 2023
Orbit: 586 x 632 km, 48.2° (Epoch: 08 June)

Event Time Altitude Azimuth Distance (km) Brightness Sun altitude
Rises 21:21:06 0° 258° (WSW) 2,803 ? -18.5°
Reaches altitude 10° 21:23:23 10° 262° (W) 1,905 ? -18.9°
Maximum altitude 21:27:43 66° 344° (NNW) 644 ? -19.6°
Enters shadow 21:29:42 31° 58° (ENE) 1,044 ? -19.9°
Drops below altitude 10° 21:32:05 10° 68° (ENE) 1,921 - -20.3°
Sets 21:34:24 0° 71° (ENE) 2,829 - -20.6°
